TimeCDT,TemperatureF,Dew PointF,Humidity,Sea Level PressureIn,VisibilityMPH,Wind Direction,Wind SpeedMPH,Gust SpeedMPH,PrecipitationIn,Events,Conditions,WindDirDegrees,DateUTC
12:52 AM,19.9,14.0,78,30.09,10.0,SW,5.8,-,N/A,,Clear,230,2013-03-19 05:52:00
1:52 AM,21.9,12.0,66,30.06,10.0,SW,5.8,-,N/A,,Clear,220,2013-03-19 06:52:00
2:52 AM,21.9,12.9,68,30.05,10.0,SW,5.8,-,N/A,,Clear,220,2013-03-19 07:52:00
3:52 AM,23.0,12.9,65,30.04,10.0,SW,3.5,-,N/A,,Clear,230,2013-03-19 08:52:00
4:52 AM,25.0,12.0,58,30.03,10.0,SW,3.5,-,N/A,,Clear,230,2013-03-19 09:52:00
5:52 AM,25.0,15.1,66,30.04,10.0,SW,4.6,-,N/A,,Clear,230,2013-03-19 10:52:00
6:52 AM,25.0,17.1,72,30.06,10.0,West,8.1,-,N/A,,Clear,280,2013-03-19 11:52:00
7:52 AM,25.0,18.0,75,30.10,10.0,WNW,11.5,-,N/A,,Clear,290,2013-03-19 12:52:00
8:52 AM,28.9,19.9,69,30.14,10.0,WNW,9.2,-,N/A,,Clear,290,2013-03-19 13:52:00
9:52 AM,37.9,21.9,53,30.15,10.0,NW,17.3,27.6,N/A,,Clear,320,2013-03-19 14:52:00
10:52 AM,39.0,19.0,45,30.17,10.0,NW,18.4,29.9,N/A,,Clear,320,2013-03-19 15:52:00
11:52 AM,42.1,18.0,38,30.19,10.0,NW,23.0,29.9,N/A,,Clear,320,2013-03-19 16:52:00
12:52 PM,43.0,17.1,35,30.20,10.0,NNW,21.9,27.6,N/A,,Partly Cloudy,330,2013-03-19 17:52:00
1:52 PM,44.1,16.0,32,30.21,10.0,NNW,17.3,24.2,N/A,,Scattered Clouds,340,2013-03-19 18:52:00
2:52 PM,44.1,16.0,32,30.22,10.0,North,17.3,27.6,N/A,,Mostly Cloudy,350,2013-03-19 19:52:00
3:52 PM,43.0,14.0,31,30.22,10.0,NNW,15.0,28.8,N/A,,Scattered Clouds,330,2013-03-19 20:52:00
4:52 PM,41.0,12.9,32,30.24,10.0,North,17.3,24.2,N/A,,Mostly Cloudy,350,2013-03-19 21:52:00
5:52 PM,39.9,10.9,31,30.27,10.0,North,23.0,29.9,N/A,,Mostly Cloudy,360,2013-03-19 22:52:00
6:52 PM,37.4,3.2,24,30.23,10.0,North,24.2,29.9,N/A,,Clear,350,2013-03-19 23:52:00
7:52 PM,32.0,3.0,29,30.36,10.0,North,16.1,24.2,N/A,,Partly Cloudy,350,2013-03-20 00:52:00
8:52 PM,28.9,5.0,36,30.39,10.0,North,10.4,-,N/A,,Clear,10,2013-03-20 01:52:00
9:52 PM,25.0,10.0,53,30.41,-9999.0,NNE,10.4,-,N/A,,Clear,20,2013-03-20 02:52:00
10:52 PM,21.9,10.0,60,30.44,10.0,NNE,5.8,-,N/A,,Clear,20,2013-03-20 03:52:00
11:52 PM,19.9,10.0,65,30.45,10.0,North,6.9,-,N/A,,Clear,360,2013-03-20 04:52:00